Satellite: ANTELSAT Catalog number: 40034 Epoch time: 14249.66897083 Element set: 218 Inclination: 097.9686 deg RA of node: 142.6994 deg Eccentricity: 0.0060956 Arg of perigee: 308.1503 deg Mean anomaly: 051.4235 deg Mean motion: 14.71346078 rev/day Decay rate: 1.361e-05 rev/day^2 Epoch rev: 1158 Checksum: 310
/EX SB KEPS @ AMSAT $ORB14249.W Orbital Elements 14249.WEATHER
HR AMSAT ORBITAL ELEMENTS FOR WEATHER SATELLITES FROM WA5QGD FORT WORTH,TX September 6, 2014 BID: ORB14249.W TO ALL RADIO AMATEURS BT
Satellite: MET-2/21 Catalog number: 22782 Epoch time: 14249.77437045 Element set: 153 Inclination: 082.5467 deg RA of node: 108.5788 deg Eccentricity: 0.0022728 Arg of perigee: 039.3881 deg Mean anomaly: 006.8980 deg Mean motion: 13.83743081 rev/day Decay rate: -1.0e-08 rev/day^2 Epoch rev: 6140 Checksum: 308
Satellite: OKEAN-4 Catalog number: 23317 Epoch time: 14249.45781594 Element set: 633 Inclination: 082.5418 deg RA of node: 351.7255 deg Eccentricity: 0.0020872 Arg of perigee: 186.0844 deg Mean anomaly: 302.0464 deg Mean motion: 14.85676077 rev/day Decay rate: 1.049e-05 rev/day^2 Epoch rev: 7517 Checksum: 314
Satellite: NOAA-14 Catalog number: 23455 Epoch time: 14249.39219681 Element set: 887 Inclination: 098.7750 deg RA of node: 331.3744 deg Eccentricity: 0.0010057 Arg of perigee: 163.2362 deg Mean anomaly: 329.7668 deg Mean motion: 14.13984431 rev/day Decay rate: 3.6e-07 rev/day^2 Epoch rev: 1542 Checksum: 314
Satellite: NOAA-15 Catalog number: 25338 Epoch time: 14249.54788501 Element set: 325 Inclination: 098.7583 deg RA of node: 243.2708 deg Eccentricity: 0.0009408 Arg of perigee: 270.8806 deg Mean anomaly: 196.8247 deg Mean motion: 14.25462940 rev/day Decay rate: 1.03e-06 rev/day^2 Epoch rev: 84843 Checksum: 328
Satellite: RESURS Catalog number: 25394 Epoch time: 14249.51161832 Element set: 741 Inclination: 098.4226 deg RA of node: 210.4946 deg Eccentricity: 0.0002090 Arg of perigee: 060.2309 deg Mean anomaly: 072.5696 deg Mean motion: 14.24397223 rev/day Decay rate: -4.0e-07 rev/day^2 Epoch rev: 83989 Checksum: 294
Satellite: FENGYUN1 Catalog number: 25730 Epoch time: 14249.48824002 Element set: 231 Inclination: 098.9175 deg RA of node: 210.1050 deg Eccentricity: 0.0020567 Arg of perigee: 241.2369 deg Mean anomaly: 262.9415 deg Mean motion: 14.12039814 rev/day Decay rate: 1.029e-05 rev/day^2 Epoch rev: 78899 Checksum: 290
Satellite: OKEAN-0 Catalog number: 25860 Epoch time: 14249.50754057 Element set: 345 Inclination: 098.0525 deg RA of node: 212.9337 deg Eccentricity: 0.0001887 Arg of perigee: 117.4771 deg Mean anomaly: 019.9909 deg Mean motion: 14.75369176 rev/day Decay rate: 5.31e-06 rev/day^2 Epoch rev: 81414 Checksum: 317
Satellite: NOAA-16 Catalog number: 26536 Epoch time: 14249.37020733 Element set: 821 Inclination: 098.9828 deg RA of node: 310.0556 deg Eccentricity: 0.0009617 Arg of perigee: 317.8836 deg Mean anomaly: 042.1595 deg Mean motion: 14.13034244 rev/day Decay rate: 8.7e-07 rev/day^2 Epoch rev: 71957 Checksum: 315
Satellite: NOAA-17 Catalog number: 27453 Epoch time: 14249.51649024 Element set: 715 Inclination: 098.3190 deg RA of node: 244.9649 deg Eccentricity: 0.0010476 Arg of perigee: 297.2190 deg Mean anomaly: 062.7922 deg Mean motion: 14.24771676 rev/day Decay rate: 8.6e-07 rev/day^2 Epoch rev: 63426 Checksum: 328
Satellite: NOAA-18 Catalog number: 28654 Epoch time: 14249.52661909 Element set: 229 Inclination: 099.1569 deg RA of node: 230.6921 deg Eccentricity: 0.0014881 Arg of perigee: 039.8871 deg Mean anomaly: 067.0193 deg Mean motion: 14.12057321 rev/day Decay rate: 1.36e-06 rev/day^2 Epoch rev: 47904 Checksum: 321
Satellite: NOAA-19 Catalog number: 33591 Epoch time: 14249.50279853 Element set: 369 Inclination: 098.9510 deg RA of node: 194.3202 deg Eccentricity: 0.0012998 Arg of perigee: 248.5772 deg Mean anomaly: 219.5614 deg Mean motion: 14.11757220 rev/day Decay rate: 1.17e-06 rev/day^2 Epoch rev: 28746 Checksum: 329
/EX SB KEPS @ AMSAT $ORB14249.M Orbital Elements 14249.MISC
HR AMSAT ORBITAL ELEMENTS FOR MANNED AND MISCELLANEOUS SATELLITES FROM WA5QGD FORT WORTH,TX September 6, 2014 BID: ORB14249.M TO ALL RADIO AMATEURS BT
Satellite: HUBBLE Catalog number: 20580 Epoch time: 14248.41125505 Element set: 104 Inclination: 028.4698 deg RA of node: 229.6615 deg Eccentricity: 0.0003281 Arg of perigee: 063.1510 deg Mean anomaly: 068.5551 deg Mean motion: 15.05685195 rev/day Decay rate: 1.661e-05 rev/day^2 Epoch rev: 13682 Checksum: 277
Satellite: ISS Catalog number: 25544 Epoch time: 14249.84848016 Element set: 38 Inclination: 051.6456 deg RA of node: 054.8389 deg Eccentricity: 0.0003634 Arg of perigee: 083.9354 deg Mean anomaly: 062.3783 deg Mean motion: 15.50285931 rev/day Decay rate: 1.2367e-04 rev/day^2 Epoch rev: 90399 Checksum: 326
Satellite: CO-58 Catalog number: 28895 Epoch time: 14249.52060168 Element set: 860 Inclination: 097.8298 deg RA of node: 087.1531 deg Eccentricity: 0.0018773 Arg of perigee: 113.1377 deg Mean anomaly: 247.1806 deg Mean motion: 14.61999301 rev/day Decay rate: 5.95e-06 rev/day^2 Epoch rev: 47213 Checksum: 341
Satellite: FALCON Catalog number: 30776 Epoch time: 14249.46880362 Element set: 947 Inclination: 035.4300 deg RA of node: 330.1867 deg Eccentricity: 0.0002127 Arg of perigee: 279.0341 deg Mean anomaly: 151.1465 deg Mean motion: 15.17179932 rev/day Decay rate: 8.538e-05 rev/day^2 Epoch rev: 41308 Checksum: 297
Satellite: MAST Catalog number: 31126 Epoch time: 14249.48133608 Element set: 135 Inclination: 097.9232 deg RA of node: 226.1747 deg Eccentricity: 0.0093520 Arg of perigee: 100.8251 deg Mean anomaly: 015.9018 deg Mean motion: 14.55364406 rev/day Decay rate: 5.88e-06 rev/day^2 Epoch rev: 39221 Checksum: 281
Satellite: CAPE1 Catalog number: 31130 Epoch time: 14249.66201244 Element set: 141 Inclination: 097.9443 deg RA of node: 223.1029 deg Eccentricity: 0.0100286 Arg of perigee: 118.3848 deg Mean anomaly: 242.7504 deg Mean motion: 14.54555468 rev/day Decay rate: 6.78e-06 rev/day^2 Epoch rev: 39165 Checksum: 290
Satellite: COMPASS Catalog number: 32787 Epoch time: 14249.39474224 Element set: 28 Inclination: 097.6941 deg RA of node: 300.5846 deg Eccentricity: 0.0012223 Arg of perigee: 271.5881 deg Mean anomaly: 088.3936 deg Mean motion: 14.88246000 rev/day Decay rate: 2.958e-05 rev/day^2 Epoch rev: 34426 Checksum: 317
Satellite: AAUSAT2 Catalog number: 32788 Epoch time: 14249.76256084 Element set: 15 Inclination: 097.6952 deg RA of node: 302.0297 deg Eccentricity: 0.0011643 Arg of perigee: 268.1005 deg Mean anomaly: 091.8879 deg Mean motion: 14.88996485 rev/day Decay rate: 2.607e-05 rev/day^2 Epoch rev: 34438 Checksum: 341
Satellite: DO-64 Catalog number: 32789 Epoch time: 14249.48325294 Element set: 57 Inclination: 097.7154 deg RA of node: 309.0623 deg Eccentricity: 0.0010535 Arg of perigee: 249.8604 deg Mean anomaly: 235.2027 deg Mean motion: 14.94109881 rev/day Decay rate: 6.655e-05 rev/day^2 Epoch rev: 34463 Checksum: 328
Satellite: CO-66 Catalog number: 32791 Epoch time: 14249.42612400 Element set: 10 Inclination: 097.6931 deg RA of node: 299.2076 deg Eccentricity: 0.0012885 Arg of perigee: 275.4928 deg Mean anomaly: 084.4818 deg Mean motion: 14.86843928 rev/day Decay rate: 1.540e-05 rev/day^2 Epoch rev: 34412 Checksum: 324
Satellite: RS-30 Catalog number: 32953 Epoch time: 14249.76352720 Element set: 262 Inclination: 082.5087 deg RA of node: 150.5016 deg Eccentricity: 0.0019135 Arg of perigee: 342.4626 deg Mean anomaly: 017.5815 deg Mean motion: 12.43050205 rev/day Decay rate: 1.0e-07 rev/day^2 Epoch rev: 28539 Checksum: 269
Satellite: METEOR-M Catalog number: 35865 Epoch time: 14249.71046043 Element set: 867 Inclination: 098.5417 deg RA of node: 294.6195 deg Eccentricity: 0.0001725 Arg of perigee: 207.0035 deg Mean anomaly: 153.1041 deg Mean motion: 14.21927917 rev/day Decay rate: -3.4e-07 rev/day^2 Epoch rev: 25792 Checksum: 297
Satellite: RS-38 Catalog number: 35869 Epoch time: 14249.75149181 Element set: 776 Inclination: 098.5348 deg RA of node: 294.4245 deg Eccentricity: 0.0004348 Arg of perigee: 203.9152 deg Mean anomaly: 268.4186 deg Mean motion: 14.22224311 rev/day Decay rate: 4.4e-07 rev/day^2 Epoch rev: 25796 Checksum: 331
Satellite: JUGNU Catalog number: 37839 Epoch time: 14249.77681343 Element set: 686 Inclination: 019.9617 deg RA of node: 120.4353 deg Eccentricity: 0.0018986 Arg of perigee: 163.2636 deg Mean anomaly: 263.8986 deg Mean motion: 14.12331883 rev/day Decay rate: 3.92e-06 rev/day^2 Epoch rev: 15010 Checksum: 325
Satellite: SRMSAT Catalog number: 37841 Epoch time: 14249.04977536 Element set: 687 Inclination: 019.9716 deg RA of node: 145.7886 deg Eccentricity: 0.0011997 Arg of perigee: 092.3570 deg Mean anomaly: 034.8501 deg Mean motion: 14.10369386 rev/day Decay rate: 3.77e-06 rev/day^2 Epoch rev: 14978 Checksum: 347
Satellite: RAX-2 Catalog number: 37853 Epoch time: 14246.46374243 Element set: 901 Inclination: 101.7074 deg RA of node: 313.4726 deg Eccentricity: 0.0214620 Arg of perigee: 190.2077 deg Mean anomaly: 294.9792 deg Mean motion: 14.90101173 rev/day Decay rate: 5.349e-05 rev/day^2 Epoch rev: 15431 Checksum: 288
Satellite: AUBIESAT Catalog number: 37854 Epoch time: 14249.24873873 Element set: 886 Inclination: 101.7118 deg RA of node: 319.7356 deg Eccentricity: 0.0212037 Arg of perigee: 178.9114 deg Mean anomaly: 224.3800 deg Mean motion: 14.91548306 rev/day Decay rate: 9.470e-05 rev/day^2 Epoch rev: 15479 Checksum: 324
Satellite: HRBE Catalog number: 37855 Epoch time: 14249.40231494 Element set: 902 Inclination: 101.7117 deg RA of node: 319.1985 deg Eccentricity: 0.0214536 Arg of perigee: 179.9092 deg Mean anomaly: 180.2187 deg Mean motion: 14.90806250 rev/day Decay rate: 1.0280e-04 rev/day^2 Epoch rev: 15477 Checksum: 302
